Weather History for Santa Ana, CA

Change the Weather History Date:

Friday, November 30, 2012

  Actual Average Record
Temperature  
Mean Temperature 66 °F 58 °F  
Max Temperature 69 °F 68 °F 78 °F (2009)
Min Temperature 63 °F 48 °F 37 °F (2004)
Degree Days  
Heating Degree Days 0 7  
Month to date heating degree days 55 126  
Since 1 July heating degree days 55 153  
Cooling Degree Days 1 0  
Month to date cooling degree days 37 22  
Year to date cooling degree days 1338 876  
Growing Degree Days 15 (Base 50)    
Moisture  
Dew Point 61 °F    
Average Humidity 82    
Maximum Humidity 87    
Minimum Humidity 76    
Precipitation  
Precipitation 0.11 in 0.03 in 1.17 in (2007)
Month to date precipitation 0.54 1.25  
Year to date precipitation 4.73 11.25  
Since 1 July precipitation 0.86 2.29  
Snow  
Snow 0.00 in - - ()
Month to date snowfall 0.0  
Year to date snowfall 0.0  
Since 1 July snowfall 0.0  
Snow Depth -    
Sea Level Pressure  
Sea Level Pressure 30.12 in    
Wind  
Wind Speed 3 mph (SSW)    
Max Wind Speed 12 mph    
Max Gust Speed 16 mph    
Visibility 4 miles    
Events Rain    
T = Trace of Precipitation, MM = Missing Value Source: NWS Daily Summary

Daily Weather History Graph

Daily Weather History Graph

Search for Another Location

Airport:

Trip Planner

Search our weather history database for the weather conditions in past years. The results will help you decide how hot, cold, wet, or windy it might be!

Date:

Astronomy

Nov. 30, 2012 Rise Set
Actual Time 6:37 AM PST 4:43 PM PST
Civil Twilight 6:10 AM PST 5:10 PM PST
Nautical Twilight 5:39 AM PST 5:41 PM PST
Astronomical Twilight 5:09 AM PST 6:11 PM PST
Moon 6:41 PM PST (11/30) 8:13 AM PST (11/30)
Length of Visible Light 10h 59m
Length of Day
10h 05m
Waning Gibbous, 96% of the Moon is Illuminated
Nov 30
Waning Gibbous
Dec 6
Last Quarter
Dec 13
New
Dec 19
First Quarter
Dec 28
Full

Hourly Weather History & Observations

Time (PST) Temp. Dew Point Humidity Pressure Visibility Wind Dir Wind Speed Gust Speed Precip Events Conditions
12:16 AM 64.4 °F 59.0 °F 83% 30.15 in 10.0 mi Calm Calm - N/A   Overcast
12:53 AM 64.0 °F 59.0 °F 84% 30.14 in 10.0 mi Calm Calm - N/A   Overcast
1:53 AM 64.0 °F 59.0 °F 84% 30.14 in 8.0 mi Calm Calm - N/A   Overcast
2:01 AM 64.4 °F 59.0 °F 83% 30.13 in 7.0 mi Calm Calm - N/A   Overcast
2:11 AM 64.4 °F 59.0 °F 83% 30.13 in 4.0 mi SW 3.5 mph - 0.00 in Rain Light Rain
2:28 AM 62.6 °F 60.8 °F 94% 30.13 in 2.0 mi Calm Calm - 0.01 in Rain Light Rain
2:49 AM 62.6 °F 60.8 °F 94% 30.13 in 1.5 mi Calm Calm - 0.02 in Rain Light Rain
2:53 AM 63.0 °F 60.1 °F 90% 30.13 in 1.5 mi Calm Calm - 0.03 in Rain Light Rain
3:28 AM 64.4 °F 60.8 °F 88% 30.12 in 1.8 mi Calm Calm - 0.03 in Rain Light Rain
3:32 AM 62.6 °F 60.8 °F 94% 30.12 in 2.0 mi Calm Calm - 0.03 in Rain Light Rain
3:42 AM 62.6 °F 60.8 °F 94% 30.12 in 4.0 mi Calm Calm - 0.03 in Rain Light Rain
3:50 AM 64.4 °F 60.8 °F 88% 30.12 in 3.0 mi Calm Calm - 0.03 in Rain Light Rain
3:53 AM 64.0 °F 60.1 °F 87% 30.12 in 2.5 mi Calm Calm - 0.03 in Rain Light Rain
4:04 AM 64.4 °F 60.8 °F 88% 30.12 in 5.0 mi Calm Calm - 0.00 in   Overcast
4:53 AM 64.0 °F 60.1 °F 87% 30.11 in 6.0 mi Calm Calm - 0.01 in   Overcast
5:01 AM 64.4 °F 60.8 °F 88% 30.11 in 6.0 mi Calm Calm - N/A   Overcast
5:53 AM 64.0 °F 60.1 °F 87% 30.12 in 3.0 mi Calm Calm - 0.01 in Rain Light Rain
6:15 AM 64.4 °F 60.8 °F 88% 30.12 in 3.0 mi East 3.5 mph - 0.00 in Rain Light Rain
6:53 AM 64.9 °F 60.1 °F 84% 30.13 in 3.0 mi SE 3.5 mph - 0.00 in   Overcast
7:53 AM 64.9 °F 60.1 °F 84% 30.14 in 3.0 mi SSE 4.6 mph - N/A   Overcast
8:30 AM 66.2 °F 60.8 °F 83% 30.14 in 3.0 mi SSE 6.9 mph - N/A   Overcast
8:39 AM 66.2 °F 60.8 °F 83% 30.15 in 8.0 mi SSE 5.8 mph - N/A   Overcast
8:53 AM 66.9 °F 61.0 °F 81% 30.15 in 8.0 mi SSE 5.8 mph - 0.00 in Rain Light Rain
9:53 AM 68.0 °F 61.0 °F 78% 30.15 in 8.0 mi SSE 5.8 mph - 0.00 in   Overcast
10:39 AM 68.0 °F 60.8 °F 78% 30.14 in 8.0 mi South 10.4 mph - N/A   Overcast
10:53 AM 68.0 °F 61.0 °F 78% 30.14 in 8.0 mi South 10.4 mph - N/A   Overcast
11:22 AM 66.2 °F 60.8 °F 83% 30.13 in 2.0 mi SSE 10.4 mph - 0.00 in Rain Light Rain
11:53 AM 66.9 °F 62.1 °F 84% 30.12 in 5.0 mi South 5.8 mph - 0.00 in Rain Light Rain
12:27 PM 66.2 °F 60.8 °F 83% 30.12 in 3.0 mi SSW 8.1 mph - 0.01 in Rain Light Rain
12:34 PM 66.2 °F 62.6 °F 88% 30.12 in 1.5 mi South 9.2 mph - 0.01 in Rain Light Rain
12:53 PM 66.9 °F 62.1 °F 84% 30.11 in 3.0 mi South 9.2 mph - 0.01 in   Overcast
1:23 PM 66.2 °F 62.6 °F 88% 30.11 in 2.0 mi South 9.2 mph - 0.01 in Rain Light Rain
1:43 PM 68.0 °F 62.6 °F 83% 30.10 in 5.0 mi South 11.5 mph - 0.01 in Rain Light Rain
1:53 PM 66.9 °F 62.1 °F 84% 30.10 in 5.0 mi South 9.2 mph - 0.01 in Rain Light Rain
2:00 PM 66.2 °F 62.6 °F 88% 30.10 in 5.0 mi South 8.1 mph - 0.00 in   Overcast
2:37 PM 68.0 °F 62.6 °F 83% 30.11 in 6.0 mi South 9.2 mph - 0.00 in   Overcast
2:49 PM 66.2 °F 62.6 °F 88% 30.10 in 5.0 mi South 9.2 mph - 0.00 in Rain Light Rain
2:53 PM 66.9 °F 62.1 °F 84% 30.11 in 5.0 mi South 8.1 mph - 0.00 in Rain Light Rain
2:59 PM 66.2 °F 62.6 °F 88% 30.11 in 1.8 mi SSW 6.9 mph - 0.01 in Rain Light Rain
3:25 PM 66.2 °F 62.6 °F 88% 30.11 in 4.0 mi SSW 6.9 mph - 0.05 in   Overcast
3:46 PM 66.2 °F 62.6 °F 88% 30.11 in 3.0 mi SSW 4.6 mph - 0.05 in   Overcast
4:39 PM 66.2 °F 62.6 °F 88% 30.11 in 2.5 mi SW 4.6 mph - N/A   Overcast
4:51 PM 66.2 °F 62.6 °F 88% 30.11 in 5.0 mi SSW 3.5 mph - 0.00 in Rain Light Rain
4:53 PM 66.0 °F 62.1 °F 87% 30.11 in 5.0 mi South 3.5 mph - 0.00 in Rain Light Rain
5:04 PM 66.2 °F 62.6 °F 88% 30.10 in 8.0 mi South 3.5 mph - 0.00 in   Mostly Cloudy
5:53 PM 66.0 °F 61.0 °F 84% 30.06 in 10.0 mi ESE 3.5 mph - 0.00 in   Scattered Clouds
6:19 PM 66.2 °F 60.8 °F 83% 30.09 in 10.0 mi West 3.5 mph - N/A   Mostly Cloudy
6:51 PM 64.4 °F 60.8 °F 88% 30.11 in 1.2 mi WSW 3.5 mph - N/A   Overcast
6:53 PM 64.9 °F 61.0 °F 87% 30.11 in 1.2 mi WSW 3.5 mph - N/A   Overcast
7:07 PM 64.4 °F 60.8 °F 88% 30.10 in 0.8 mi SW 4.6 mph - N/A   Overcast
7:37 PM 64.4 °F 62.6 °F 94% 30.12 in 3.0 mi West 3.5 mph - N/A   Overcast
7:45 PM 64.4 °F 60.8 °F 88% 30.12 in 2.0 mi WSW 3.5 mph - N/A   Overcast
7:53 PM 64.9 °F 61.0 °F 87% 30.12 in 2.0 mi SW 3.5 mph - N/A   Overcast
8:25 PM 64.4 °F 60.8 °F 88% 30.12 in 1.5 mi SSW 4.6 mph - N/A   Overcast
8:53 PM 64.9 °F 61.0 °F 87% 30.12 in 1.5 mi SW 5.8 mph - N/A   Overcast
9:16 PM 64.4 °F 60.8 °F 88% 30.13 in 8.0 mi SW 3.5 mph - N/A   Mostly Cloudy
9:53 PM 64.9 °F 60.1 °F 84% 30.14 in 8.0 mi West 3.5 mph - N/A   Mostly Cloudy
10:21 PM 64.4 °F 60.8 °F 88% 30.14 in 6.0 mi Calm Calm - N/A   Overcast
10:53 PM 64.0 °F 60.1 °F 87% 30.13 in 4.0 mi Calm Calm - N/A   Overcast
11:53 PM 64.0 °F 60.1 °F 87% 30.14 in 7.0 mi WSW 3.5 mph - N/A   Overcast